Wind_Speed
38 38 37 35 35 36 36 37 37 36 34 34 29 27 27 26 28 27 27 27 27 28 28 28 27 27 27 28 28 30 31 30 33 34 34 35 37 37 35 37 37 40 43 46
40 38 36 37 37 37 36 36 35 34 33 33 29 28 27 27 28 27 28 27 26 28 29 31 30 28 29 30 32 32 33 33 32 35 34 34 35 36 37 39 40 41 44 46
38 38 37 38 36 33 33 33 33 34 35 35 30 30 29 28 28 27 28 28 28 28 29 31 31 30 31 32 32 33 33 34 35 32 34 34 36 36 37 39 41 43 46 49
39 37 36 37 37 35 34 32 32 33 33 34 34 34 32 31 31 31 29 29 31 32 30 32 32 33 32 33 33 34 35 34 34 33 36 36 36 36 38 41 42 46 49 53
41 43 42 42 41 41 41 37 38 39 38 36 41 36 38 37 36 36 35 31 34 35 34 34 34 34 35 34 34 35 35 35 34 36 37 38 39 41 40 42 45 50 54 55
53 50 50 49 48 48 48 45 45 45 44 43 48 44 44 45 43 40 39 38 38 38 39 39 36 38 36 35 36 36 35 36 36 39 40 41 41 42 44 46 49 52 55 56
57 58 58 57 57 58 56 54 54 52 51 50 54 51 49 48 49 43 43 42 42 42 42 42 41 43 40 38 37 37 38 38 40 42 43 42 43 43 48 50 54 53 53 56
54 57 57 59 62 62 62 61 61 60 59 57 58 58 55 50 52 48 46 45 45 45 46 43 42 49 42 42 41 41 44 42 43 44 46 46 45 49 51 52 54 54 57 62
45 47 49 52 57 62 64 64 66 64 64 63 64 62 62 59 54 52 51 50 48 47 47 50 43 50 46 45 45 44 47 46 47 47 48 48 48 51 51 52 55 60 64 66
40 40 42 43 51 52 53 58 62 64 66 66 66 64 71 67 63 59 56 54 52 51 46 51 46 49 47 46 47 44 46 47 47 49 48 48 51 51 53 55 60 64 70 72
31 31 37 34 37 41 43 51 52 54 58 60 60 64 68 66 64 66 58 57 56 60 50 52 51 50 48 47 48 47 46 49 48 49 50 53 53 54 56 59 64 69 69 70
30 36 35 36 33 33 31 30 35 44 48 55 58 54 62 65 71 68 66 66 66 61 60 54 56 56 55 53 48 48 48 48 49 51 53 53 53 55 58 63 68 69 70 72
37 38 37 35 36 36 27 33 37 31 29 38 49 50 59 64 67 68 68 67 67 66 69 57 57 60 59 57 54 52 52 51 51 52 53 56 58 60 65 68 69 71 72 72
44 44 40 38 42 37 35 35 39 39 33 31 32 38 45 56 59 48 70 71 68 67 70 64 61 63 64 60 60 59 59 58 59 60 62 64 66 67 68 70 72 71 70 73
48 45 51 48 49 51 43 41 42 37 37 36 37 35 37 44 50 60 70 68 67 66 67 69 63 66 67 64 64 64 64 63 65 64 65 67 69 68 70 71 68 67 70 72
56 52 55 55 56 52 48 43 42 43 41 40 40 35 40 43 46 50 52 59 64 67 66 69 61 65 68 67 67 67 68 68 68 67 67 70 69 68 65 65 67 66 69 67
51 59 65 61 66 60 49 52 50 45 46 44 39 41 44 45 46 45 39 41 47 54 64 68 62 62 63 61 61 62 62 64 64 63 62 62 62 62 63 64 64 65 63 65
65 73 64 67 71 63 56 57 57 55 48 47 43 38 42 46 46 47 44 40 45 50 51 53 58 59 64 61 62 60 60 60 57 54 53 56 56 57 58 60 59 61 63 65
77 73 66 65 72 66 62 62 64 60 56 56 46 43 48 46 52 45 42 44 42 47 52 51 50 45 49 55 60 64 61 58 55 51 50 51 52 55 56 57 57 60 62 63
86 81 83 73 68 70 66 70 67 63 59 60 58 55 54 50 57 54 46 44 44 44 46 51 49 42 40 42 43 53 57 59 55 50 50 48 50 54 54 51 56 55 57 61
92 89 85 72 64 62 70 74 68 65 64 60 60 62 60 58 61 61 55 52 48 46 42 45 46 43 40 35 40 42 44 42 39 39 41 43 45 46 44 48 48 52 57 64
99 92 75 70 63 62 67 68 70 64 61 62 59 56 56 64 64 62 58 59 50 47 42 39 45 45 43 35 39 39 37 33 27 29 30 31 37 36 41 45 51 56 61 67
90 84 74 63 59 63 62 65 66 65 66 64 60 57 57 61 62 63 59 60 56 48 43 40 46 46 43 38 31 32 31 24 24 27 27 30 27 36 43 47 47 55 62 68
88 78 69 59 60 61 63 65 66 67 66 61 53 57 59 62 60 61 61 62 56 51 39 40 44 43 41 40 33 26 27 23 25 26 28 27 30 34 43 47 50 54 59 69
83 71 63 55 61 67 66 69 69 66 61 57 61 63 62 60 58 60 60 62 55 54 42 39 40 38 39 38 29 21 23 22 26 31 31 28 31 35 45 44 50 53 62 70
69 63 59 53 63 66 67 69 66 60 60 62 65 66 64 61 59 60 61 57 50 49 36 43 40 42 41 36 28 25 22 24 26 28 29 34 39 38 35 39 50 58 62 67
Wind_Direction
259 262 264 265 268 271 271 273 274 274 276 278 280 286 295 299 302 289 283 282 283 283 285 285 285 288 294 294 294 293 291 291 295 293 292 292 293 296 304 308 311 310 311 313
260 262 266 265 267 272 272 273 270 270 275 276 282 290 296 300 301 296 289 289 289 289 289 288 287 290 291 291 291 291 294 296 296 296 298 300 304 307 310 310 312 312 313 313
259 261 265 266 265 265 267 269 268 269 273 281 287 290 295 298 295 297 288 287 291 288 288 288 290 288 288 290 293 294 294 297 298 302 304 304 305 308 310 311 311 313 313 313
263 265 261 264 262 262 263 266 271 274 275 281 282 285 288 292 293 292 291 286 288 285 284 283 287 289 290 292 296 295 297 299 302 305 304 305 305 306 309 310 314 313 313 313
263 263 261 259 260 262 265 264 268 271 273 279 280 283 284 287 287 286 288 289 282 283 282 281 282 284 286 290 292 295 299 300 303 303 302 303 305 306 309 310 313 313 313 314
265 264 262 258 259 260 263 265 269 271 272 277 276 280 281 283 283 285 284 285 282 282 281 278 275 280 283 286 288 292 294 295 298 299 299 302 303 307 308 311 312 312 313 315
267 265 264 264 262 264 264 263 267 269 270 272 275 277 276 277 280 277 279 280 279 283 284 287 287 281 286 287 288 289 289 291 294 297 301 302 303 306 307 312 311 313 315 316
268 267 266 264 263 262 265 267 266 265 266 268 268 269 268 270 270 274 276 276 279 280 281 286 288 282 290 288 286 285 286 289 292 296 298 301 304 305 309 311 311 312 313 313
274 273 270 268 267 265 262 261 263 263 263 263 264 265 267 263 265 268 267 270 273 276 281 283 286 278 289 286 283 283 286 289 291 294 298 301 302 305 310 309 310 311 313 313
283 280 275 272 271 267 267 264 263 262 262 261 262 265 263 264 265 260 268 267 266 267 269 275 278 281 284 286 286 289 286 289 291 294 297 297 300 306 307 307 310 311 312 316
302 299 293 287 283 276 267 265 263 263 262 261 260 259 267 264 263 266 260 262 266 265 265 271 272 275 280 283 285 286 288 290 291 292 295 297 301 303 302 306 308 310 313 314
308 302 303 298 293 291 290 286 271 266 263 261 259 256 257 258 261 263 266 264 263 265 265 263 269 270 273 275 278 282 285 289 290 293 296 298 299 300 303 305 308 310 312 314
291 300 303 293 292 289 282 292 295 285 280 273 262 257 257 260 260 263 262 263 263 263 265 266 267 268 269 272 276 280 284 287 289 292 293 294 296 299 302 304 306 309 311 313
293 294 296 289 291 294 283 283 283 288 285 283 279 268 264 261 262 274 266 262 262 263 266 265 265 267 269 272 274 277 279 281 283 285 288 292 295 298 301 303 305 308 310 313
289 291 290 293 290 290 291 280 279 271 282 282 280 280 273 268 262 245 262 263 264 267 266 266 264 265 269 271 273 275 277 280 282 285 289 292 295 298 300 301 305 307 310 314
289 289 287 287 287 286 290 283 282 274 272 274 276 281 283 281 278 273 269 267 266 264 265 267 265 269 269 270 272 274 277 279 281 284 288 291 293 295 299 302 305 310 311 313
281 294 284 280 280 281 285 280 277 272 270 273 279 274 275 278 278 284 290 289 281 273 267 266 265 268 270 273 274 277 279 280 284 287 291 291 294 297 299 304 308 310 310 314
292 295 286 274 272 275 272 269 273 272 274 269 271 279 282 276 275 276 279 282 288 290 286 277 269 266 267 270 273 275 277 280 284 288 292 294 296 298 300 305 309 309 313 313
295 296 291 278 267 267 268 264 264 267 268 273 274 273 278 284 281 285 297 283 281 277 280 287 284 275 274 271 273 273 274 277 281 286 287 290 294 295 300 307 310 311 313 314
297 297 292 286 273 260 260 260 262 264 265 267 269 270 272 280 281 294 290 294 274 278 276 281 288 292 283 280 280 278 279 276 277 280 286 290 292 296 303 309 310 313 317 318
298 297 294 285 268 258 254 258 259 258 261 267 269 268 271 276 276 284 292 293 281 274 274 276 284 287 286 284 285 285 284 285 284 281 281 286 288 295 304 307 310 314 313 316
297 295 291 282 263 254 249 252 258 259 257 260 264 270 273 269 271 275 284 288 283 273 271 275 276 281 287 290 291 296 295 286 278 274 276 280 286 298 304 305 311 315 318 316
295 292 288 275 260 254 251 250 252 256 258 258 260 264 269 271 273 271 281 285 284 272 266 268 268 273 284 288 288 290 300 273 259 267 274 285 295 303 304 308 313 324 318 317
295 287 281 269 255 249 248 248 251 253 256 260 268 265 266 268 267 271 280 284 279 268 261 267 266 269 276 283 288 292 282 262 254 253 273 283 294 304 306 305 319 321 313 315
290 280 272 262 250 248 246 246 247 252 257 255 257 260 263 267 270 272 277 281 276 266 257 262 260 263 270 282 285 282 274 259 256 257 269 276 289 288 287 308 317 308 313 316
279 274 267 260 251 247 249 251 251 250 251 251 253 260 263 264 269 271 274 279 270 268 251 256 256 261 269 276 275 274 266 260 267 273 275 286 280 286 307 309 301 309 312 316
Height
10880 10881 10883 10886 10886 10885 10885 10884 10882 10880 10877 10877 10879 10879 10877 10877 10876 10875 10875 10875 10874 10874 10874 10874 10874 10873 10872 10871 10871 10868 10866 10865 10861 10858 10855 10852 10848 10843 10839 10834 10830 10825 10821 10815
10872 10874 10877 10877 10878 10878 10878 10877 10875 10874 10871 10871 10872 10871 10871 10870 10870 10870 10871 10870 10870 10868 10869 10868 10868 10867 10867 10866 10863 10862 10859 10856 10856 10851 10848 10843 10839 10835 10831 10825 10822 10818 10813 10808
10864 10867 10868 10868 10870 10870 10871 10870 10869 10868 10866 10864 10866 10864 10864 10864 10864 10864 10864 10865 10864 10862 10862 10861 10860 10860 10859 10858 10858 10854 10852 10850 10847 10844 10839 10836 10833 10829 10825 10819 10814 10811 10806 10799
10857 10860 10860 10861 10862 10863 10863 10863 10863 10862 10862 10859 10858 10857 10857 10857 10857 10857 10857 10858 10858 10856 10855 10854 10854 10853 10852 10851 10849 10847 10845 10843 10838 10836 10832 10829 10826 10822 10819 10813 10807 10801 10796 10790
10849 10850 10852 10852 10853 10854 10854 10856 10856 10854 10855 10854 10847 10852 10849 10849 10849 10848 10848 10850 10849 10848 10848 10846 10846 10845 10844 10843 10842 10839 10837 10834 10831 10828 10826 10822 10818 10813 10810 10805 10801 10793 10786 10780
10838 10841 10840 10842 10843 10843 10844 10847 10847 10847 10847 10849 10839 10843 10839 10839 10840 10840 10839 10840 10840 10840 10839 10841 10839 10837 10837 10836 10834 10832 10830 10827 10824 10820 10817 10813 10809 10804 10799 10796 10792 10787 10778 10770
10825 10827 10830 10831 10831 10830 10833 10835 10835 10837 10838 10839 10833 10833 10832 10828 10826 10832 10830 10830 10831 10829 10829 10831 10832 10828 10829 10828 10827 10824 10821 10818 10815 10811 10808 10804 10800 10796 10790 10787 10780 10774 10769 10761
10813 10813 10817 10816 10814 10819 10819 10821 10822 10824 10824 10828 10823 10821 10822 10821 10813 10821 10820 10821 10820 10820 10819 10822 10824 10812 10820 10818 10816 10814 10809 10808 10805 10802 10798 10795 10791 10787 10782 10776 10768 10763 10759 10750
10800 10801 10803 10802 10801 10801 10804 10807 10805 10810 10809 10813 10809 10811 10809 10806 10809 10804 10809 10809 10810 10811 10812 10808 10815 10804 10807 10807 10805 10806 10800 10798 10796 10793 10789 10786 10781 10776 10771 10765 10759 10751 10743 10737
10789 10790 10789 10791 10786 10789 10788 10788 10791 10793 10795 10798 10799 10800 10782 10794 10801 10799 10794 10796 10799 10799 10804 10798 10804 10796 10797 10797 10794 10795 10791 10788 10787 10784 10780 10776 10771 10767 10760 10754 10747 10739 10730 10721
10782 10780 10776 10779 10777 10775 10777 10775 10777 10777 10777 10781 10784 10781 10775 10782 10786 10782 10791 10781 10785 10780 10796 10788 10791 10789 10788 10787 10784 10783 10784 10779 10778 10774 10770 10765 10761 10756 10751 10744 10736 10729 10720 10713
10776 10774 10774 10771 10768 10766 10767 10764 10764 10764 10763 10766 10767 10772 10765 10763 10764 10774 10774 10770 10769 10775 10775 10784 10781 10779 10778 10777 10776 10774 10774 10772 10769 10764 10759 10754 10751 10746 10740 10733 10725 10718 10710 10701
10769 10768 10769 10764 10761 10762 10762 10758 10755 10755 10754 10753 10753 10758 10752 10751 10753 10757 10758 10756 10756 10761 10756 10776 10770 10765 10767 10766 10767 10765 10763 10761 10757 10753 10748 10744 10740 10736 10730 10723 10714 10707 10699 10690
10758 10759 10760 10758 10752 10755 10755 10752 10749 10746 10745 10744 10743 10743 10742 10741 10745 10750 10737 10739 10745 10748 10745 10758 10759 10754 10752 10756 10755 10754 10751 10750 10746 10742 10738 10733 10729 10724 10718 10711 10703 10695 10688 10679
10747 10750 10746 10748 10746 10742 10746 10743 10739 10737 10736 10735 10732 10732 10732 10729 10727 10732 10727 10728 10733 10735 10734 10732 10742 10741 10739 10743 10741 10739 10736 10736 10731 10730 10726 10720 10716 10712 10706 10698 10692 10684 10677 10669
10732 10738 10735 10737 10734 10733 10734 10731 10729 10728 10724 10723 10724 10726 10719 10716 10713 10710 10714 10720 10718 10716 10720 10716 10729 10724 10723 10725 10726 10724 10723 10721 10718 10717 10716 10708 10704 10700 10693 10687 10682 10675 10666 10658
10726 10725 10722 10726 10718 10721 10727 10716 10713 10713 10713 10713 10715 10714 10709 10707 10702 10702 10709 10709 10702 10702 10705 10703 10713 10709 10710 10712 10710 10711 10710 10706 10707 10706 10704 10695 10694 10688 10681 10676 10671 10664 10655 10648
10706 10706 10703 10707 10701 10709 10709 10702 10698 10696 10700 10700 10703 10703 10699 10692 10690 10693 10698 10700 10695 10692 10689 10687 10692 10700 10696 10698 10697 10697 10695 10696 10697 10694 10692 10684 10681 10677 10672 10667 10661 10653 10645 10636
10685 10680 10678 10681 10681 10691 10692 10686 10678 10680 10687 10685 10691 10690 10686 10686 10672 10685 10688 10691 10689 10681 10677 10677 10676 10685 10684 10685 10682 10681 10682 10684 10684 10684 10679 10674 10670 10665 10661 10658 10651 10643 10635 10627
10662 10658 10654 10653 10655 10663 10667 10660 10664 10668 10671 10672 10674 10673 10672 10676 10664 10668 10674 10676 10676 10672 10672 10667 10668 10675 10670 10674 10672 10669 10670 10670 10672 10670 10668 10664 10659 10655 10652 10648 10641 10634 10626 10618
10642 10635 10630 10623 10627 10635 10641 10637 10646 10650 10653 10656 10658 10658 10660 10662 10653 10650 10657 10662 10660 10663 10661 10661 10661 10661 10660 10665 10662 10660 10659 10658 10659 10657 10655 10653 10649 10646 10642 10638 10632 10626 10618 10608
10609 10605 10605 10597 10600 10611 10611 10620 10623 10633 10637 10637 10640 10646 10651 10643 10640 10640 10641 10639 10647 10649 10650 10654 10652 10649 10650 10655 10652 10651 10649 10648 10646 10645 10644 10642 10639 10639 10634 10629 10624 10618 10608 10598
10590 10579 10577 10578 10584 10587 10597 10599 10603 10610 10614 10619 10627 10632 10629 10628 10629 10627 10628 10628 10628 10633 10638 10643 10638 10639 10642 10644 10645 10642 10639 10637 10636 10636 10636 10635 10633 10629 10626 10622 10616 10608 10599 10590
10566 10555 10555 10561 10564 10568 10572 10578 10585 10587 10595 10605 10613 10611 10612 10611 10613 10615 10615 10616 10614 10617 10626 10626 10627 10629 10631 10633 10635 10632 10631 10630 10629 10629 10629 10626 10624 10622 10618 10613 10607 10601 10591 10581
10538 10532 10533 10541 10544 10545 10551 10555 10563 10576 10585 10590 10586 10584 10590 10597 10600 10601 10601 10599 10599 10601 10612 10612 10616 10620 10621 10624 10626 10625 10625 10623 10623 10623 10621 10619 10616 10612 10609 10605 10599 10592 10584 10573
10512 10512 10513 10522 10521 10528 10535 10537 10547 10560 10562 10564 10567 10569 10576 10580 10584 10584 10585 10583 10585 10586 10599 10597 10605 10607 10611 10615 10616 10616 10617 10617 10616 10616 10616 10615 10611 10606 10601 10598 10591 10584 10578 10568